Flag for Cameroon Weather past 2 weeks in Bamenda, Cameroon

Now
79 °F

Drizzle. Fog.


Feels Like: 82 °F
Forecast: 59 / 76 °F
Wind: 5 mph from West

Location: Douala Obs.

Current Time: Jul 4, 2015 at 11:51:24 AM

Latest Report: Jul 4, 2015 at 11:00 AM


Visibility: 1 mi

Pressure: 29.98 "Hg (26.02 "Hg at 1240m altitude)

Humidity: 89%

Dew point: 75 °F

Location of BamendaLocation

Historic Weather in Bamenda — Graph

°F

Bamenda temperature yesterday

Maximum temperature yesterday: 81 °F (at 1:00 PM)
Minimum temperature yesterday: 75 °F (at 12:00 AM)
Average temperature yesterday: 77 °F

Past Weeks' High & Low Weather Summary

 TemperatureHumidityPressure
High84 °F (Jun 21, 2:00 PM)100% (Jun 20, 6:00 AM)30.09 "Hg (Jun 20, 6:00 AM)
Low75 °F (Jun 20, 6:00 AM)70% (Jun 29, 12:00 PM)29.86 "Hg (Jun 19, 4:00 PM)
Average78 °F91%29.97 "Hg
* Reported Jun 19 10:00 AM — Jul 4 10:00 AM, Bamenda, Weather by CustomWeather, © 2015

Note: Actual official high and low records may vary slightly from our data, if they occured in-between our weather recording intervals... More about our weather records

Advertising

Bamenda weather history for previous 24 hours

 ConditionsComfort  
Time TempWeatherWind HumidityBarometerVisibility
10:00 AM
Sat, Jul 4
77 °FFog.No wind94%29.98 "Hg1 mi
9:00 AM77 °FFog.No wind94%29.98 "Hg1 mi
8:00 AM75 °FFog.No wind100%29.98 "Hg1 mi
7:00 AM75 °FFog.2 mph100%29.95 "Hg2 mi
6:00 AM75 °FPartly cloudy.No wind100%29.92 "Hg4 mi
5:00 AM75 °FPassing clouds.No wind100%29.92 "Hg4 mi
4:00 AM75 °FPassing clouds.No wind100%29.92 "Hg4 mi
3:00 AM75 °FPassing clouds.No wind100%29.95 "Hg4 mi
2:00 AM75 °FPassing clouds.No wind100%29.95 "Hg4 mi
1:00 AM75 °FPartly cloudy.No wind100%29.95 "Hg4 mi
12:00 AM75 °FPartly cloudy.No wind100%29.98 "Hg4 mi
11:00 PM
Fri, Jul 3
75 °FPartly cloudy.2 mph100%29.98 "Hg4 mi
10:00 PM77 °FLight rain. Partly cloudy.2 mph94%29.98 "Hg4 mi
9:00 PM77 °FPartly cloudy.2 mph94%29.98 "Hg2 mi
8:00 PM77 °FPassing clouds.No wind94%29.95 "HgN/A
7:00 PM77 °FPartly cloudy.7 mph94%29.92 "HgN/A
6:00 PM77 °FBroken clouds.9 mph94%29.89 "HgN/A
5:00 PM77 °FDrizzle. Broken clouds.7 mph94%29.89 "Hg4 mi
4:00 PM77 °FDrizzle. Broken clouds.5 mph94%29.89 "Hg2 mi
3:00 PM79 °FBroken clouds.9 mph89%29.92 "HgN/A
2:00 PM81 °FDrizzle. Partly sunny.9 mph84%29.92 "Hg4 mi
1:00 PM81 °FPartly sunny.7 mph79%29.95 "HgN/A
12:00 PM79 °FPartly sunny.7 mph84%29.98 "HgN/A
11:00 AM79 °FPartly sunny.7 mph84%29.98 "HgN/A
Weather by CustomWeather, © 2015

See weather overviewHow to use our weather pages